• Em Portugal
  • Lista de países
  • Para 7 dias
  • Temperatura da água
  • Mapas de satélite
  • Mapa do tempo
  • Widgets de tempo
  • user-avatar
    Iniciar Sessão

    Previsão horária em Gostkow

    Hoje, 19 Setembro, Quarta-feira

    Tempo Temperatura Precipitação Vento Pressão Humidade
    00:00 +17°C° 0 mm 4 m/s 718 mmHg 65%
    01:00 +17°C° 0 mm 3 m/s 718 mmHg 65%
    02:00 +17°C° 0 mm 3 m/s 718 mmHg 66%
    03:00 +16°C° 0 mm 3 m/s 718 mmHg 67%
    04:00 +16°C° 0 mm 3 m/s 718 mmHg 68%
    05:00 +16°C° 0 mm 3 m/s 719 mmHg 68%
    06:00 +16°C° 0 mm 2 m/s 719 mmHg 68%
    07:00 +17°C° 0 mm 2 m/s 719 mmHg 68%
    08:00 +19°C° 0 mm 2 m/s 720 mmHg 63%
    09:00 +21°C° 0 mm 2 m/s 720 mmHg 58%
    10:00 +24°C° 0 mm 2 m/s 720 mmHg 53%
    11:00 +24°C° 0 mm 2 m/s 720 mmHg 51%
    12:00 +25°C° 0 mm 2 m/s 720 mmHg 49%
    13:00 +26°C° 0 mm 2 m/s 720 mmHg 47%
    14:00 +26°C° 0 mm 2 m/s 720 mmHg 47%
    15:00 +26°C° 0 mm 1 m/s 720 mmHg 48%
    16:00 +26°C° 0 mm 1 m/s 720 mmHg 48%
    17:00 +24°C° 0 mm 1 m/s 720 mmHg 54%
    18:00 +22°C° 0 mm 1 m/s 720 mmHg 61%
    19:00 +19°C° 0 mm 2 m/s 720 mmHg 68%
    20:00 +19°C° 0 mm 2 m/s 720 mmHg 70%
    21:00 +18°C° 0 mm 2 m/s 720 mmHg 72%
    22:00 +18°C° 0 mm 2 m/s 720 mmHg 74%
    23:00 +17°C° 0 mm 2 m/s 720 mmHg 75%

    Amanhã, 20 Setembro, Quinta-feira

    Tempo Temperatura Precipitação Vento Pressão Humidade
    00:00 +17°C° 0 mm 2 m/s 720 mmHg 77%
    01:00 +17°C° 0 mm 2 m/s 720 mmHg 78%
    02:00 +17°C° 0 mm 2 m/s 719 mmHg 80%
    03:00 +16°C° 0 mm 2 m/s 719 mmHg 81%
    04:00 +16°C° 0 mm 2 m/s 719 mmHg 82%
    05:00 +17°C° 0 mm 2 m/s 720 mmHg 81%
    06:00 +17°C° 0 mm 2 m/s 720 mmHg 79%
    07:00 +19°C° 0 mm 1 m/s 720 mmHg 78%
    08:00 +21°C° 0 mm 1 m/s 720 mmHg 71%
    09:00 +23°C° 0 mm 2 m/s 721 mmHg 63%
    10:00 +25°C° 0 mm 2 m/s 721 mmHg 56%
    11:00 +25°C° 0 mm 2 m/s 721 mmHg 53%
    12:00 +26°C° 0 mm 2 m/s 721 mmHg 50%
    13:00 +27°C° 0 mm 2 m/s 720 mmHg 46%
    14:00 +27°C° 0 mm 2 m/s 720 mmHg 47%
    15:00 +27°C° 0 mm 2 m/s 720 mmHg 47%
    16:00 +27°C° 0 mm 2 m/s 720 mmHg 47%
    17:00 +25°C° 0 mm 1 m/s 719 mmHg 53%
    18:00 +23°C° 0 mm 1 m/s 719 mmHg 59%
    19:00 +21°C° 0 mm 1 m/s 719 mmHg 65%
    20:00 +20°C° 0 mm 1 m/s 719 mmHg 67%
    21:00 +20°C° 0 mm 1 m/s 719 mmHg 69%
    22:00 +18°C° 0 mm 2 m/s 718 mmHg 71%
    23:00 +18°C° 0 mm 2 m/s 718 mmHg 73%

    Depois de amanhã, 21 Setembro, Sexta-feira

    Tempo Temperatura Precipitação Vento Pressão Humidade
    00:00 +18°C° 0 mm 2 m/s 718 mmHg 75%
    01:00 +17°C° 0 mm 2 m/s 718 mmHg 77%
    02:00 +17°C° 0 mm 2 m/s 717 mmHg 77%
    03:00 +17°C° 0 mm 2 m/s 717 mmHg 78%
    04:00 +16°C° 0 mm 2 m/s 716 mmHg 78%
    05:00 +17°C° 0 mm 3 m/s 716 mmHg 76%
    06:00 +17°C° 0 mm 3 m/s 716 mmHg 73%
    07:00 +17°C° 0 mm 3 m/s 716 mmHg 70%
    08:00 +19°C° 0 mm 4 m/s 716 mmHg 62%
    09:00 +22°C° 0 mm 5 m/s 716 mmHg 54%
    10:00 +24°C° 0 mm 6 m/s 716 mmHg 47%
    11:00 +24°C° 0 mm 6 m/s 715 mmHg 44%
    12:00 +26°C° 0 mm 6 m/s 715 mmHg 42%
    13:00 +27°C° 0 mm 7 m/s 714 mmHg 39%
    14:00 +27°C° 0 mm 6 m/s 714 mmHg 41%
    15:00 +27°C° 0 mm 6 m/s 713 mmHg 43%
    16:00 +26°C° 0 mm 6 m/s 712 mmHg 45%
    17:00 +25°C° 0 mm 5 m/s 712 mmHg 48%
    18:00 +23°C° 0 mm 5 m/s 711 mmHg 50%
    19:00 +21°C° 0 mm 5 m/s 711 mmHg 53%
    20:00 +21°C° 0 mm 6 m/s 711 mmHg 55%
    21:00 +20°C° 0 mm 6 m/s 711 mmHg 57%
    22:00 +20°C° 0 mm 7 m/s 712 mmHg 58%
    23:00 +16°C° 1.2 mm 7 m/s 713 mmHg 66%

    22 Setembro, Sábado

    Tempo Temperatura Precipitação Vento Pressão Humidade
    00:00 +12°C° 1.2 mm 7 m/s 713 mmHg 75%
    01:00 +9°C° 1.2 mm 8 m/s 714 mmHg 83%
    02:00 +9°C° 0.8 mm 7 m/s 715 mmHg 81%
    03:00 +8°C° 0.8 mm 6 m/s 716 mmHg 79%
    04:00 +8°C° 0.8 mm 5 m/s 717 mmHg 78%
    05:00 +8°C° 0 mm 5 m/s 717 mmHg 76%
    06:00 +8°C° 0 mm 5 m/s 718 mmHg 74%
    07:00 +7°C° 0 mm 5 m/s 718 mmHg 73%
    08:00 +8°C° 0 mm 5 m/s 719 mmHg 69%
    09:00 +9°C° 0 mm 6 m/s 719 mmHg 65%
    10:00 +10°C° 0 mm 6 m/s 719 mmHg 60%
    11:00 +11°C° 0 mm 6 m/s 719 mmHg 57%
    12:00 +13°C° 0 mm 6 m/s 719 mmHg 53%
    13:00 +13°C° 0 mm 6 m/s 719 mmHg 50%
    14:00 +13°C° 0 mm 6 m/s 719 mmHg 48%
    15:00 +13°C° 0 mm 6 m/s 719 mmHg 47%
    16:00 +14°C° 0 mm 5 m/s 719 mmHg 45%
    17:00 +12°C° 0 mm 4 m/s 719 mmHg 51%
    18:00 +11°C° 0 mm 3 m/s 719 mmHg 56%
    19:00 +9°C° 0 mm 2 m/s 719 mmHg 61%
    20:00 +9°C° 0 mm 3 m/s 720 mmHg 63%
    21:00 +8°C° 0 mm 3 m/s 720 mmHg 65%
    22:00 +8°C° 0 mm 3 m/s 720 mmHg 67%
    23:00 +7°C° 0 mm 3 m/s 720 mmHg 69%

    23 Setembro, Domingo

    Tempo Temperatura Precipitação Vento Pressão Humidade
    00:00 +7°C° 0 mm 3 m/s 720 mmHg 71%
    01:00 +7°C° 0 mm 2 m/s 720 mmHg 72%
    02:00 +6°C° 0 mm 2 m/s 719 mmHg 73%
    03:00 +6°C° 0 mm 2 m/s 719 mmHg 75%
    04:00 +6°C° 0 mm 2 m/s 719 mmHg 76%
    05:00 +6°C° 0 mm 2 m/s 719 mmHg 74%
    06:00 +7°C° 0 mm 2 m/s 719 mmHg 71%
    07:00 +7°C° 0 mm 2 m/s 719 mmHg 69%
    08:00 +9°C° 0 mm 3 m/s 718 mmHg 63%
    09:00 +11°C° 0 mm 4 m/s 718 mmHg 57%
    10:00 +12°C° 0 mm 4 m/s 718 mmHg 51%
    11:00 +13°C° 0 mm 5 m/s 717 mmHg 49%
    12:00 +13°C° 0 mm 5 m/s 716 mmHg 47%
    13:00 +14°C° 0 mm 5 m/s 715 mmHg 45%
    14:00 +13°C° 0.6 mm 5 m/s 714 mmHg 54%
    15:00 +12°C° 0.6 mm 5 m/s 713 mmHg 62%
    16:00 +11°C° 0.6 mm 4 m/s 712 mmHg 71%
    17:00 +9°C° 0.6 mm 5 m/s 711 mmHg 72%
    18:00 +9°C° 0.6 mm 6 m/s 710 mmHg 72%
    19:00 +9°C° 0.6 mm 6 m/s 709 mmHg 73%
    20:00 +10°C° 0.3 mm 7 m/s 707 mmHg 74%
    21:00 +10°C° 0.3 mm 7 m/s 706 mmHg 75%
    22:00 +10°C° 0.3 mm 7 m/s 704 mmHg 76%
    23:00 +10°C° 2.7 mm 7 m/s 705 mmHg 78%

    24 Setembro, Segunda-feira

    Tempo Temperatura Precipitação Vento Pressão Humidade
    00:00 +10°C° 2.7 mm 8 m/s 705 mmHg 81%
    01:00 +10°C° 2.7 mm 8 m/s 705 mmHg 83%
    02:00 +9°C° 0.4 mm 8 m/s 704 mmHg 81%
    03:00 +9°C° 0.4 mm 8 m/s 703 mmHg 79%
    04:00 +7°C° 0.4 mm 8 m/s 703 mmHg 77%
    05:00 +7°C° 0.1 mm 8 m/s 702 mmHg 76%
    06:00 +7°C° 0.1 mm 8 m/s 702 mmHg 75%
    07:00 +7°C° 0.1 mm 9 m/s 701 mmHg 74%
    08:00 +8°C° 0.1 mm 9 m/s 701 mmHg 73%
    09:00 +8°C° 0.1 mm 9 m/s 702 mmHg 72%
    10:00 +10°C° 0.1 mm 9 m/s 702 mmHg 71%
    11:00 +10°C° 0.3 mm 9 m/s 702 mmHg 72%
    12:00 +10°C° 0.3 mm 9 m/s 703 mmHg 74%
    13:00 +10°C° 0.3 mm 9 m/s 703 mmHg 76%
    14:00 +8°C° 0.3 mm 9 m/s 704 mmHg 77%
    15:00 +7°C° 0.3 mm 9 m/s 704 mmHg 78%
    16:00 +6°C° 0.3 mm 9 m/s 705 mmHg 79%
    17:00 +6°C° 0.1 mm 9 m/s 705 mmHg 79%
    18:00 +6°C° 0.1 mm 8 m/s 706 mmHg 80%
    19:00 +6°C° 0.1 mm 8 m/s 706 mmHg 80%
    20:00 +6°C° 0.3 mm 8 m/s 706 mmHg 82%
    21:00 +6°C° 0.3 mm 8 m/s 707 mmHg 84%
    22:00 +6°C° 0.3 mm 8 m/s 707 mmHg 85%
    23:00 +5°C° 0.8 mm 8 m/s 708 mmHg 86%
    Mostrar mais